| time (UTC) | temp F | wind direction | speed MPH | gust MPH | rain 1hr in | rain 24hr in | rain mn in | humidity % | barometer mb |
| 20260502183024 | 66 | 34 | 4.0 | 9.0 | 0.00 | 0.00 | 0.00 | 31 | 1018.7 |
| 20260502181518 | 65 | 27 | 6.0 | 11.0 | 0.00 | 0.00 | 0.00 | 31 | 1018.9 |
| 20260502163033 | 63 | 104 | 3.0 | 7.0 | 0.00 | 0.00 | 0.00 | 31 | 1019.2 |
| 20260502161526 | 62 | 285 | 4.0 | 8.0 | 0.00 | 0.00 | 0.00 | 32 | 1019.2 |
| 20260502151504 | 56 | 226 | 8.0 | 13.0 | 0.00 | 0.00 | 0.00 | 36 | 1019.1 |
| 20260502123013 | 37 | 270 | 5.0 | 8.0 | 0.00 | 0.00 | 0.00 | 60 | 1018.5 |
| 20260502121512 | 36 | 273 | 5.0 | 8.0 | 0.00 | 0.00 | 0.00 | 63 | 1018.5 |
| 20260502114507 | 36 | 272 | 5.0 | 9.0 | 0.00 | 0.00 | 0.00 | 63 | 1018.4 |
| 20260502113006 | 35 | 274 | 4.0 | 9.0 | 0.00 | 0.00 | 0.00 | 65 | 1018.4 |
| 20260502111511 | 34 | 250 | 3.0 | 6.0 | 0.00 | 0.00 | 0.00 | 66 | 1018.4 |
| 20260502104520 | 36 | 269 | 4.0 | 6.0 | 0.00 | 0.00 | 0.00 | 63 | 1018.3 |
| 20260502103014 | 37 | 263 | 5.0 | 9.0 | 0.00 | 0.00 | 0.00 | 60 | 1018.2 |
| 20260502101534 | 37 | 263 | 5.0 | 9.0 | 0.00 | 0.00 | 0.00 | 59 | 1018.2 |
| 20260502091514 | 37 | 286 | 6.0 | 9.0 | 0.00 | 0.00 | 0.00 | 59 | 1018.0 |
| 20260502071520 | 38 | 280 | 4.0 | 7.0 | 0.00 | 0.00 | 0.00 | 57 | 1018.3 |
| 20260502070022 | 39 | 278 | 3.0 | 7.0 | 0.00 | 0.00 | 0.00 | 57 | 1018.3 |
| 20260502064514 | 39 | 288 | 3.0 | 6.0 | 0.00 | 0.00 | 0.00 | 58 | 1018.4 |
| 20260502061522 | 41 | 265 | 4.0 | 7.0 | 0.00 | 0.00 | 0.00 | 54 | 1018.3 |
| 20260502060010 | 41 | 275 | 4.0 | 6.0 | 0.00 | 0.00 | 0.00 | 54 | 1018.2 |
| 20260502054510 | 41 | 259 | 3.0 | 5.0 | 0.00 | 0.00 | 0.00 | 53 | 1018.4 |
| 20260502053013 | 41 | 273 | 3.0 | 6.0 | 0.00 | 0.00 | 0.00 | 52 | 1018.5 |
| 20260502051517 | 41 | 286 | 3.0 | 6.0 | 0.00 | 0.00 | 0.00 | 53 | 1018.5 |
| 20260502050022 | 41 | 285 | 3.0 | 5.0 | 0.00 | 0.00 | 0.00 | 52 | 1018.5 |
| 20260502044510 | 43 | 284 | 3.0 | 5.0 | 0.00 | 0.00 | 0.00 | 48 | 1018.5 |
| 20260502043012 | 45 | 283 | 3.0 | 5.0 | 0.00 | 0.00 | 0.00 | 46 | 1018.5 |
| 20260502041513 | 45 | 287 | 3.0 | 5.0 | 0.00 | 0.00 | 0.00 | 48 | 1018.4 |
| 20260502040017 | 45 | 278 | 2.0 | 4.0 | 0.00 | 0.00 | 0.00 | 41 | 1018.4 |
| 20260502034527 | 46 | 275 | 2.0 | 6.0 | 0.00 | 0.00 | 0.00 | 38 | 1018.2 |
| 20260502033008 | 48 | 287 | 4.0 | 6.0 | 0.00 | 0.00 | 0.00 | 36 | 1018.2 |
| 20260502031512 | 50 | 298 | 3.0 | 5.0 | 0.00 | 0.00 | 0.00 | 33 | 1018.1 |
| 20260502030014 | 50 | 272 | 3.0 | 5.0 | 0.00 | 0.00 | 0.00 | 34 | 1017.8 |
| 20260502024519 | 51 | 288 | 3.0 | 5.0 | 0.00 | 0.00 | 0.00 | 35 | 1017.6 |
| 20260502023024 | 56 | 300 | 3.0 | 5.0 | 0.00 | 0.00 | 0.00 | 30 | 1017.3 |
| 20260502021525 | 62 | 262 | 3.0 | 6.0 | 0.00 | 0.00 | 0.00 | 23 | 1017.2 |
| 20260502020014 | 66 | 266 | 4.0 | 8.0 | 0.00 | 0.00 | 0.00 | 19 | 1017.2 |
| 20260502014519 | 68 | 253 | 4.0 | 7.0 | 0.00 | 0.00 | 0.00 | 18 | 1017.1 |
| 20260502013021 | 69 | 251 | 4.0 | 10.0 | 0.00 | 0.00 | 0.00 | 17 | 1017.2 |
| 20260502011525 | 70 | 250 | 5.0 | 11.0 | 0.00 | 0.00 | 0.00 | 16 | 1017.1 |
| 20260502010026 | 70 | 254 | 5.0 | 10.0 | 0.00 | 0.00 | 0.00 | 16 | 1017.2 |
| 20260502004514 | 71 | 261 | 5.0 | 8.0 | 0.00 | 0.00 | 0.00 | 17 | 1017.3 |
| 20260502003016 | 71 | 200 | 5.0 | 9.0 | 0.00 | 0.00 | 0.00 | 16 | 1017.4 |
| 20260502001521 | 71 | 267 | 5.0 | 10.0 | 0.00 | 0.00 | 0.00 | 17 | 1017.5 |
| 20260502000025 | 71 | 217 | 7.0 | 10.0 | 0.00 | 0.00 | 0.00 | 16 | 1017.5 |
| 20260501234525 | 71 | 212 | 5.0 | 9.0 | 0.00 | 0.00 | 0.00 | 16 | 1017.7 |
| 20260501233019 | 71 | 200 | 4.0 | 11.0 | 0.00 | 0.00 | 0.00 | 16 | 1017.6 |
| 20260501231520 | 72 | 204 | 2.0 | 11.0 | 0.00 | 0.00 | 0.00 | 17 | 1017.6 |
| 20260501230034 | 71 | 207 | 6.0 | 9.0 | 0.00 | 0.00 | 0.00 | 17 | 1017.6 |
| 20260501224509 | 70 | 285 | 4.0 | 9.0 | 0.00 | 0.00 | 0.00 | 17 | 1017.7 |
| 20260501223014 | 70 | 224 | 3.0 | 11.0 | 0.00 | 0.00 | 0.00 | 17 | 1017.6 |
| 20260501221516 | 69 | 226 | 2.0 | 11.0 | 0.00 | 0.00 | 0.00 | 18 | 1018.0 |
| 20260501220005 | 70 | 291 | 4.0 | 12.0 | 0.00 | 0.00 | 0.00 | 17 | 1018.2 |
| 20260501214508 | 70 | 188 | 3.0 | 9.0 | 0.00 | 0.00 | 0.00 | 17 | 1018.3 |
| 20260501213011 | 70 | 243 | 5.0 | 9.0 | 0.00 | 0.00 | 0.00 | 18 | 1018.6 |
| 20260501211516 | 69 | 283 | 3.0 | 7.0 | 0.00 | 0.00 | 0.00 | 18 | 1018.6 |
| 20260501210018 | 68 | 279 | 2.0 | 10.0 | 0.00 | 0.00 | 0.00 | 19 | 1018.7 |
| 20260501204505 | 69 | 243 | 3.0 | 12.0 | 0.00 | 0.00 | 0.00 | 20 | 1018.8 |
| 20260501203010 | 68 | 314 | 7.0 | 12.0 | 0.00 | 0.00 | 0.00 | 22 | 1018.7 |
| 20260501201512 | 68 | 255 | 8.0 | 13.0 | 0.00 | 0.00 | 0.00 | 20 | 1018.8 |
| 20260501200017 | 67 | 264 | 3.0 | 11.0 | 0.00 | 0.00 | 0.00 | 22 | 1018.8 |
| 20260501194521 | 66 | 207 | 4.0 | 9.0 | 0.00 | 0.00 | 0.00 | 21 | 1018.9 |
| 20260501193006 | 66 | 262 | 5.0 | 10.0 | 0.00 | 0.00 | 0.00 | 22 | 1019.0 |
| 20260501191512 | 65 | 274 | 7.0 | 15.0 | 0.00 | 0.00 | 0.00 | 23 | 1019.1 |
| 20260501190015 | 65 | 260 | 3.0 | 11.0 | 0.00 | 0.00 | 0.00 | 23 | 1019.3 |
| 20260501184526 | 65 | 269 | 5.0 | 11.0 | 0.00 | 0.00 | 0.00 | 23 | 1019.5 |